FW6429 Weather Reports


Display with metric or nautical units.
time (UTC)temp
F
wind
direction
speed
MPH
gust
MPH
rain 1hr
in
rain 24hr
in
rain mn
in
humidity
%
barometer
mb
20260508033042 49 223 0.0 0.0 0.00 0.00 0.00 87 1002.3
20260508031538 49 223 0.0 0.0 0.00 0.00 0.00 87 1002.3
20260508030035 49 223 0.0 0.0 0.00 0.00 0.00 87 1002.4
20260508024545 49 223 2.0 3.0 0.00 0.00 0.00 87 1002.3
20260508023035 49 223 0.0 2.0 0.00 0.00 0.00 87 1002.0
20260508021535 49 223 0.0 0.0 0.00 0.00 0.00 87 1002.1
20260508020033 49 223 0.0 1.0 0.00 0.00 0.00 87 1002.1
20260508014540 48 193 1.0 3.0 0.00 0.00 0.00 87 1002.3
20260508013032 48 191 1.0 4.0 0.00 0.00 0.00 87 1002.0
20260508011535 48 215 1.0 4.0 0.00 0.00 0.00 87 1002.2
20260508010035 48 210 2.0 7.0 0.00 0.00 0.00 87 1002.4
20260508004534 48 222 2.0 6.0 0.00 0.00 0.00 87 1002.4
20260508003030 48 230 0.0 3.0 0.00 0.00 0.00 87 1002.3
20260508001631 49 249 1.0 5.0 0.00 0.00 0.00 87 1002.6
20260508000028 49 202 2.0 8.0 0.00 0.00 0.00 87 1002.9
20260507234527 49 188 1.0 6.0 0.00 0.00 0.00 87 1002.5
20260507233038 49 200 1.0 6.0 0.00 0.00 0.00 87 1002.9
20260507231534 49 217 1.0 5.0 0.00 0.00 0.00 88 1003.2
20260507230025 49 173 2.0 5.0 0.00 0.00 0.00 88 1002.9
20260507224531 49 186 1.0 4.0 0.00 0.00 0.00 88 1003.2
20260507223026 49 252 2.0 5.0 0.00 0.00 0.00 88 1003.1
20260507221533 49 166 1.0 5.0 0.00 0.00 0.00 88 1003.3
20260507220022 49 210 1.0 5.0 0.00 0.00 0.00 88 1003.4
20260507214520 49 215 2.0 8.0 0.00 0.00 0.00 88 1002.9
20260507213019 49 254 4.0 8.0 0.00 0.00 0.00 89 1002.5
20260507211522 49 196 4.0 10.0 0.00 0.00 0.00 89 1002.6
20260507210012 50 183 4.0 10.0 0.00 0.00 0.00 89 1003.5
20260507204509 50 203 2.0 10.0 0.00 0.00 0.00 89 1004.1
20260507203007 50 199 4.0 20.0 0.00 0.00 0.00 90 1004.1
20260507201505 50 202 4.0 10.0 0.00 0.00 0.00 91 1004.8
20260507200002 50 233 4.0 9.0 0.00 0.00 0.00 92 1005.1
20260507194502 51 239 5.0 10.0 0.00 0.00 0.00 92 1004.9
20260507193003 52 207 2.0 11.0 0.00 0.00 0.00 93 1005.0
20260507191604 52 200 5.0 11.0 0.00 0.00 0.00 93 1005.1
20260507190105 52 198 5.0 14.0 0.00 0.00 0.00 94 1005.4
20260507184600 52 205 6.0 14.0 0.00 0.00 0.00 93 1005.9
20260507183054 53 209 4.0 11.0 0.00 0.00 0.00 93 1005.7
20260507181554 53 197 6.0 19.0 0.00 0.00 0.00 92 1005.4
20260507180052 54 159 8.0 22.0 0.00 0.00 0.00 91 1005.4
20260507174551 55 172 6.0 19.0 0.00 0.00 0.00 91 1005.5
20260507173050 55 202 6.0 14.0 0.00 0.00 0.00 91 1006.0
20260507171547 55 204 6.0 19.0 0.00 0.00 0.00 91 1005.9
20260507170046 55 235 3.0 20.0 0.00 0.00 0.00 91 1006.5
20260507164556 55 196 7.0 17.0 0.00 0.00 0.00 91 1006.7
20260507163040 55 188 6.0 15.0 0.00 0.00 0.00 91 1007.2
20260507161540 55 202 4.0 13.0 0.00 0.00 0.00 90 1008.1
20260507160039 56 190 8.0 14.0 0.00 0.00 0.00 91 1008.1
20260507154540 56 302 5.0 19.0 0.00 0.00 0.00 91 1008.4
20260507153034 56 159 8.0 22.0 0.00 0.00 0.00 91 1008.6
20260507151533 56 164 7.0 16.0 0.00 0.00 0.00 90 1009.1
20260507150029 55 192 7.0 15.0 0.00 0.00 0.00 90 1009.1
20260507144531 55 148 6.0 21.0 0.00 0.00 0.00 90 1009.3
20260507143031 55 179 7.0 17.0 0.00 0.00 0.00 90 1010.0
20260507141523 55 179 5.0 15.0 0.00 0.00 0.00 88 1010.4
20260507140021 54 209 5.0 12.0 0.00 0.00 0.00 87 1010.6
20260507134524 54 196 4.0 11.0 0.00 0.00 0.00 87 1010.7
20260507133017 54 231 5.0 15.0 0.00 0.00 0.00 87 1011.0
20260507131517 53 109 2.0 15.0 0.00 0.00 0.00 87 1010.7
20260507130014 53 242 5.0 10.0 0.00 0.00 0.00 87 1011.0
20260507124517 52 184 5.0 16.0 0.00 0.00 0.00 87 1010.7
20260507123013 52 192 6.0 15.0 0.00 0.00 0.00 87 1010.9
20260507121508 52 194 4.0 12.0 0.00 0.00 0.00 87 1011.8
20260507120007 52 186 5.0 14.0 0.00 0.00 0.00 87 1012.1
20260507114506 52 177 4.0 11.0 0.00 0.00 0.00 87 1012.6
20260507113012 52 204 3.0 6.0 0.00 0.00 0.00 88 1012.7
20260507111504 52 167 4.0 10.0 0.00 0.00 0.00 88 1012.4
20260507110002 51 196 5.0 12.0 0.00 0.00 0.00 88 1012.8
20260507104600 51 206 5.0 15.0 0.00 0.00 0.00 88 1012.8
20260507103059 51 188 3.0 10.0 0.00 0.00 0.00 89 1013.5
20260507101608 51 175 2.0 10.0 0.00 0.00 0.00 89 1013.0
20260507094604 51 190 5.0 12.0 0.00 0.00 0.00 89 1013.2
20260507093053 51 141 4.0 14.0 0.00 0.00 0.00 90 1013.3
20260507091552 51 167 5.0 15.0 0.00 0.00 0.00 90 1013.1
20260507090050 52 162 6.0 13.0 0.00 0.00 0.00 90 1013.2
20260507084556 52 183 4.0 12.0 0.00 0.00 0.00 91 1013.5
20260507083049 52 187 5.0 14.0 0.00 0.00 0.00 92 1013.4
20260507081546 51 135 3.0 12.0 0.00 0.00 0.00 92 1013.5
20260507080048 51 177 3.0 9.0 0.00 0.00 0.00 92 1014.0
20260507074542 51 206 2.0 5.0 0.00 0.00 0.00 92 1014.4
20260507073037 51 212 1.0 6.0 0.00 0.00 0.00 92 1014.6
20260507071535 51 186 2.0 9.0 0.00 0.00 0.00 92 1014.8
20260507070034 51 181 4.0 9.0 0.00 0.00 0.00 92 1014.8
20260507064532 52 124 4.0 10.0 0.00 0.00 0.00 92 1014.8
20260507063028 52 173 4.0 11.0 0.00 0.00 0.00 92 1015.0
20260507061526 52 187 3.0 10.0 0.00 0.00 0.00 93 1015.2
20260507060024 52 183 2.0 8.0 0.00 0.00 0.00 93 1015.4
20260507054530 52 171 3.0 10.0 0.00 0.00 0.00 94 1015.5
20260507053019 52 184 3.0 9.0 0.00 0.00 0.00 94 1015.8
20260507051517 52 185 3.0 8.0 0.00 0.00 0.00 94 1016.1
20260507050014 52 200 3.0 5.0 0.00 0.00 0.00 95 1016.4
20260507044512 52 221 4.0 7.0 0.00 0.00 0.00 95 1016.7
20260507043019 52 181 3.0 11.0 0.00 0.00 0.00 95 1016.9
20260507041505 52 156 3.0 10.0 0.00 0.00 0.00 95 1017.2
20260507040004 52 206 2.0 8.0 0.00 0.00 0.00 95 1017.3
20260507034501 52 210 3.0 8.0 0.00 0.00 0.00 95 1017.6